KG0HG Weather Reports


Display with metric or nautical units.
time (UTC)temp
F
wind
direction
speed
MPH
gust
MPH
rain 1hr
in
rain 24hr
in
rain mn
in
humidity
%
barometer
mb
20260903193214 95 216 6.0 9.0 0.00 0.00 0.00 46 1012.6
20260903192711 95 185 5.0 14.0 0.00 0.00 0.00 45 1012.5
20260903192206 96 153 3.0 7.0 0.00 0.00 0.00 46 1012.8
20260903191702 96 158 1.0 5.0 0.00 0.00 0.00 46 1012.5
20260903191201 96 271 2.0 6.0 0.00 0.00 0.00 46 1012.6
20260903190656 94 164 3.0 7.0 0.00 0.00 0.00 48 1012.7
20260903190151 94 166 3.0 5.0 0.00 0.00 0.00 48 1012.9
20260903185646 95 179 5.0 10.0 0.00 0.00 0.00 48 1012.9
20260903185141 93 167 1.0 3.0 0.00 0.00 0.00 48 1012.9
20260903184638 94 170 2.0 3.0 0.00 0.00 0.00 47 1013.0
20260903184133 93 173 3.0 7.0 0.00 0.00 0.00 47 1012.9
20260903183631 93 170 5.0 8.0 0.00 0.00 0.00 48 1013.1
20260903183127 93 167 4.0 6.0 0.00 0.00 0.00 49 1013.0
20260903182626 94 174 2.0 11.0 0.00 0.00 0.00 49 1013.1
20260903182122 92 182 3.0 6.0 0.00 0.00 0.00 51 1013.2
20260903181620 93 154 2.0 7.0 0.00 0.00 0.00 50 1013.4
20260903181114 92 172 0.0 7.0 0.00 0.00 0.00 50 1013.1
20260903180610 92 173 1.0 3.0 0.00 0.00 0.00 50 1013.4
20260903180104 92 158 3.0 9.0 0.00 0.00 0.00 51 1013.5
20260903175604 93 182 3.0 6.0 0.00 0.00 0.00 51 1013.4
20260903175103 92 173 1.0 2.0 0.00 0.00 0.00 48 1013.7
20260903174558 92 195 3.0 5.0 0.00 0.00 0.00 50 1013.6
20260903174052 91 160 1.0 3.0 0.00 0.00 0.00 50 1013.6
20260903173547 91 155 3.0 6.0 0.00 0.00 0.00 51 1013.8
20260903173044 92 163 3.0 7.0 0.00 0.00 0.00 51 1013.7
20260903172539 91 158 3.0 6.0 0.00 0.00 0.00 52 1013.7
20260903172035 92 169 2.0 5.0 0.00 0.00 0.00 53 1013.9
20260903171529 91 170 4.0 7.0 0.00 0.00 0.00 54 1014.1
20260903171024 91 156 3.0 5.0 0.00 0.00 0.00 54 1014.1
20260903170523 91 174 2.0 6.0 0.00 0.00 0.00 54 1014.1
20260903170019 91 171 3.0 5.0 0.00 0.00 0.00 54 1014.2
20260903165511 91 156 3.0 6.0 0.00 0.00 0.00 55 1014.3
20260903165007 91 167 3.0 6.0 0.00 0.00 0.00 55 1014.2
20260903164507 91 165 3.0 7.0 0.00 0.00 0.00 56 1014.4
20260903164002 91 160 4.0 5.0 0.00 0.00 0.00 57 1014.2
20260903163456 90 166 2.0 7.0 0.00 0.00 0.00 56 1014.2
20260903162952 90 173 3.0 6.0 0.00 0.00 0.00 56 1014.2
20260903162449 89 166 1.0 2.0 0.00 0.00 0.00 57 1014.3
20260903161944 89 166 2.0 6.0 0.00 0.00 0.00 57 1014.4
20260903161434 89 169 3.0 8.0 0.00 0.00 0.00 58 1014.4
20260903160930 89 163 1.0 5.0 0.00 0.00 0.00 58 1014.4
20260903160429 89 185 3.0 5.0 0.00 0.00 0.00 59 1014.4
20260903155928 88 161 2.0 3.0 0.00 0.00 0.00 59 1014.4
20260903155423 88 187 6.0 7.0 0.00 0.00 0.00 61 1014.6
20260903154919 88 168 3.0 5.0 0.00 0.00 0.00 61 1014.6
20260903154414 87 169 2.0 3.0 0.00 0.00 0.00 61 1014.3
20260903153909 87 148 4.0 7.0 0.00 0.00 0.00 62 1014.6
20260903153404 87 171 6.0 8.0 0.00 0.00 0.00 62 1014.4
20260903152901 87 166 1.0 5.0 0.00 0.00 0.00 64 1014.6
20260903152356 87 164 2.0 6.0 0.00 0.00 0.00 64 1014.4
20260903151852 86 172 1.0 3.0 0.00 0.00 0.00 65 1014.6
20260903151347 86 173 1.0 7.0 0.00 0.00 0.00 64 1014.5
20260903150846 85 163 4.0 7.0 0.00 0.00 0.00 65 1014.6
20260903150341 85 170 5.0 7.0 0.00 0.00 0.00 65 1014.5
20260903145836 85 217 3.0 7.0 0.00 0.00 0.00 66 1014.5
20260903145331 85 170 3.0 6.0 0.00 0.00 0.00 66 1014.4
20260903144830 84 179 3.0 7.0 0.00 0.00 0.00 66 1014.4
20260903144325 84 183 1.0 2.0 0.00 0.00 0.00 68 1014.4
20260903143816 84 159 3.0 3.0 0.00 0.00 0.00 68 1014.5
20260903143312 84 178 2.0 6.0 0.00 0.00 0.00 68 1014.5
20260903142808 83 177 4.0 6.0 0.00 0.00 0.00 69 1014.6
20260903142306 83 161 3.0 5.0 0.00 0.00 0.00 69 1014.7
20260903141759 83 146 3.0 3.0 0.00 0.00 0.00 70 1014.7
20260903141255 82 186 1.0 3.0 0.00 0.00 0.00 71 1014.5
20260903140754 82 164 1.0 3.0 0.00 0.00 0.00 71 1014.8
20260903140249 82 166 2.0 3.0 0.00 0.00 0.00 71 1014.7
20260903135745 81 166 2.0 3.0 0.00 0.00 0.00 72 1014.7
20260903135240 81 166 2.0 3.0 0.00 0.00 0.00 74 1014.5
20260903134739 80 166 0.0 0.0 0.00 0.00 0.00 75 1014.7
20260903134235 80 166 0.0 1.0 0.00 0.00 0.00 76 1014.7
20260903133732 79 166 0.0 0.0 0.00 0.00 0.00 77 1014.6
20260903133229 78 166 0.0 0.0 0.00 0.00 0.00 78 1014.7
20260903132723 78 166 0.0 2.0 0.00 0.00 0.00 78 1014.8
20260903132218 78 166 1.0 2.0 0.00 0.00 0.00 78 1014.7
20260903131713 78 166 0.0 0.0 0.00 0.00 0.00 78 1014.7
20260903131213 77 166 0.0 0.0 0.00 0.00 0.00 80 1014.8
20260903130708 77 166 0.0 0.0 0.00 0.00 0.00 80 1014.5
20260903130202 76 166 0.0 1.0 0.00 0.00 0.00 81 1014.6
20260903125700 76 166 0.0 0.0 0.00 0.00 0.00 82 1014.6
20260903125155 75 166 0.0 0.0 0.00 0.00 0.00 82 1014.5
20260903124650 75 166 0.0 0.0 0.00 0.00 0.00 83 1014.5
20260903124149 75 166 0.0 0.0 0.00 0.00 0.00 83 1014.8
20260903123649 75 166 0.0 0.0 0.00 0.00 0.00 83 1014.5
20260903123148 75 166 0.0 0.0 0.00 0.00 0.00 82 1014.3
20260903122642 75 166 0.0 0.0 0.00 0.00 0.00 83 1014.4
20260903122137 75 167 0.0 0.0 0.00 0.00 0.00 82 1014.4
20260903121636 75 166 0.0 0.0 0.00 0.00 0.00 82 1014.5
20260903121132 75 166 0.0 0.0 0.00 0.00 0.00 82 1014.3
20260903120631 75 166 0.0 0.0 0.00 0.00 0.00 83 1014.3
20260903120125 75 166 0.0 0.0 0.00 0.00 0.00 82 1014.4
20260903115623 75 166 0.0 0.0 0.00 0.00 0.00 82 1014.2
20260903115119 75 167 0.0 0.0 0.00 0.00 0.00 81 1014.2
20260903114614 75 166 0.0 0.0 0.00 0.00 0.00 81 1014.1
20260903114110 75 166 0.0 0.0 0.00 0.00 0.00 81 1013.9
20260903113605 75 167 0.0 0.0 0.00 0.00 0.00 81 1013.9
20260903113101 75 166 0.0 0.0 0.00 0.00 0.00 81 1014.0
20260903112556 75 167 0.0 0.0 0.00 0.00 0.00 81 1014.1
20260903112051 75 167 0.0 0.0 0.00 0.00 0.00 81 1013.9
20260903111549 75 166 0.0 0.0 0.00 0.00 0.00 81 1014.0
20260903111040 75 166 0.0 0.0 0.00 0.00 0.00 80 1013.9
20260903110535 75 166 0.0 0.0 0.00 0.00 0.00 80 1013.8
20260903110031 76 166 0.0 0.0 0.00 0.00 0.00 79 1013.9
20260903105525 76 166 0.0 0.0 0.00 0.00 0.00 79 1013.7
20260903105020 76 166 0.0 0.0 0.00 0.00 0.00 78 1013.8
20260903104514 76 166 0.0 0.0 0.00 0.00 0.00 78 1013.5
20260903104010 77 166 0.0 0.0 0.00 0.00 0.00 78 1013.6
20260903103506 77 166 0.0 0.0 0.00 0.00 0.00 77 1013.6
20260903103002 77 166 0.0 0.0 0.00 0.00 0.00 77 1013.5
20260903102457 77 166 0.0 0.0 0.00 0.00 0.00 76 1013.7
20260903101955 77 166 0.0 0.0 0.00 0.00 0.00 76 1013.5
20260903101450 77 166 0.0 0.0 0.00 0.00 0.00 75 1013.6
20260903100946 78 166 0.0 0.0 0.00 0.00 0.00 75 1013.3
20260903100441 78 166 0.0 0.0 0.00 0.00 0.00 75 1013.3
20260903095938 78 166 0.0 0.0 0.00 0.00 0.00 75 1013.5
20260903095433 78 166 0.0 0.0 0.00 0.00 0.00 75 1013.4
20260903094927 77 166 0.0 0.0 0.00 0.00 0.00 76 1013.6
20260903094421 77 166 0.0 0.0 0.00 0.00 0.00 76 1013.3
20260903093917 77 166 0.0 0.0 0.00 0.00 0.00 77 1013.3
20260903093412 77 166 0.0 0.0 0.00 0.00 0.00 78 1013.3
20260903092908 76 166 0.0 0.0 0.00 0.00 0.00 79 1013.3
20260903092407 76 166 0.0 0.0 0.00 0.00 0.00 79 1013.4
20260903091906 77 166 0.0 0.0 0.00 0.00 0.00 78 1013.3
20260903091359 76 166 0.0 0.0 0.00 0.00 0.00 78 1013.3
20260903090854 76 166 0.0 0.0 0.00 0.00 0.00 79 1013.7
20260903090350 76 166 0.0 0.0 0.00 0.00 0.00 79 1013.4
20260903085848 76 166 0.0 0.0 0.00 0.00 0.00 79 1013.3
20260903085341 76 166 0.0 0.0 0.00 0.00 0.00 80 1013.5
20260903084841 76 166 0.0 0.0 0.00 0.00 0.00 81 1013.4
20260903084339 75 166 0.0 0.0 0.00 0.00 0.00 83 1013.5
20260903083835 75 166 0.0 0.0 0.00 0.00 0.00 84 1013.3
20260903083331 74 166 0.0 0.0 0.00 0.00 0.00 85 1013.6
20260903082829 74 166 0.0 0.0 0.00 0.00 0.00 87 1013.3
20260903082325 73 166 0.0 0.0 0.00 0.00 0.00 89 1013.4
20260903081820 73 166 0.0 0.0 0.00 0.00 0.00 89 1013.5
20260903081315 73 166 0.0 0.0 0.00 0.00 0.00 90 1013.6
20260903080813 73 166 0.0 0.0 0.00 0.00 0.00 90 1013.2
20260903080310 74 166 0.0 0.0 0.00 0.00 0.00 90 1013.2
20260903075809 74 166 0.0 0.0 0.00 0.00 0.00 90 1013.4
20260903075306 73 166 0.0 0.0 0.00 0.00 0.00 90 1013.3
20260903074803 73 166 0.0 0.0 0.00 0.00 0.00 90 1013.4
20260903074258 73 166 0.0 0.0 0.00 0.00 0.00 91 1013.2
20260903073754 73 166 0.0 0.0 0.00 0.00 0.00 92 1013.2
20260903073249 74 166 0.0 0.0 0.00 0.00 0.00 92 1013.4
20260903072745 74 166 0.0 0.0 0.00 0.00 0.00 92 1013.5
20260903072241 74 166 0.0 0.0 0.00 0.00 0.00 92 1013.5
20260903071737 74 166 0.0 0.0 0.00 0.00 0.00 93 1013.5
20260903071232 74 166 0.0 0.0 0.00 0.00 0.00 93 1013.6
20260903070732 74 166 0.0 0.0 0.00 0.00 0.00 92 1013.2
20260903070228 74 166 0.0 0.0 0.00 0.00 0.00 92 1013.6
20260903065723 74 166 0.0 0.0 0.00 0.00 0.00 92 1013.4
20260903065222 74 166 0.0 0.0 0.00 0.00 0.00 92 1013.4
20260903064721 74 166 0.0 0.0 0.00 0.00 0.00 92 1013.7
20260903064216 75 166 0.0 0.0 0.00 0.00 0.00 92 1013.5
20260903063713 75 166 0.0 0.0 0.00 0.00 0.00 92 1013.3
20260903063202 75 166 0.0 0.0 0.00 0.00 0.00 91 1013.4
20260903062657 75 166 0.0 0.0 0.00 0.00 0.00 91 1013.4
20260903062152 75 166 0.0 0.0 0.00 0.00 0.00 91 1013.2
20260903061648 75 166 0.0 0.0 0.00 0.00 0.00 91 1013.4
20260903061146 75 166 0.0 0.0 0.00 0.00 0.00 91 1013.3
20260903060642 75 166 0.0 0.0 0.00 0.00 0.00 90 1013.4
20260903060137 75 166 0.0 0.0 0.00 0.00 0.00 90 1013.1
20260903055634 75 166 0.0 0.0 0.00 0.00 0.00 90 1013.3
20260903055133 75 166 0.0 0.0 0.00 0.00 0.00 90 1013.3
20260903054628 76 166 0.0 0.0 0.00 0.00 0.00 90 1013.5
20260903054124 76 166 0.0 0.0 0.00 0.00 0.00 89 1013.3
20260903053620 76 166 0.0 0.0 0.00 0.00 0.00 89 1013.4
20260903053115 76 166 0.0 0.0 0.00 0.00 0.00 89 1013.3
20260903052611 76 166 0.0 0.0 0.00 0.00 0.00 89 1013.3
20260903052107 76 166 0.0 0.0 0.00 0.00 0.00 89 1013.1
20260903051607 77 166 0.0 0.0 0.00 0.00 0.00 88 1013.1
20260903051102 77 166 0.0 0.0 0.00 0.00 0.00 88 1013.3
20260903050602 77 166 0.0 0.0 0.00 0.00 0.00 88 1013.4
20260903050057 77 166 0.0 0.0 0.00 0.00 0.00 87 1013.1
20260903045556 77 166 0.0 0.0 0.00 0.00 0.00 87 1013.1
20260903045053 77 166 0.0 0.0 0.00 0.00 0.00 86 1013.2
20260903044549 77 166 0.0 0.0 0.00 0.00 0.00 86 1013.3
20260903044044 77 166 0.0 0.0 0.00 0.00 0.00 86 1013.2
20260903043540 78 166 0.0 0.0 0.00 0.00 0.00 86 1013.4
20260903043039 78 166 0.0 0.0 0.00 0.00 0.00 86 1013.2
20260903042534 78 166 0.0 0.0 0.00 0.00 0.00 85 1013.2
20260903042029 78 166 0.0 0.0 0.00 0.00 0.00 85 1013.4
20260903041526 78 166 0.0 0.0 0.00 0.00 0.00 85 1013.4
20260903041021 78 166 0.0 0.0 0.00 0.00 0.00 84 1013.3
20260903040520 79 166 0.0 0.0 0.00 0.00 0.00 84 1013.6
20260903040017 79 166 0.0 0.0 0.00 0.00 0.00 84 1013.4
20260903035512 79 166 0.0 0.0 0.00 0.00 0.00 83 1013.2
20260903035008 79 166 0.0 0.0 0.00 0.00 0.00 83 1013.4
20260903034508 79 166 0.0 0.0 0.00 0.00 0.00 82 1013.6
20260903034002 79 166 0.0 0.0 0.00 0.00 0.00 82 1013.4
20260903033457 80 166 0.0 0.0 0.00 0.00 0.00 82 1013.4
20260903032952 80 166 0.0 0.0 0.00 0.00 0.00 81 1013.6
20260903032448 80 166 0.0 0.0 0.00 0.00 0.00 81 1013.4
20260903031943 80 166 0.0 0.0 0.00 0.00 0.00 81 1013.3
20260903031437 80 166 0.0 0.0 0.00 0.00 0.00 80 1013.3
20260903030932 80 166 0.0 0.0 0.00 0.00 0.00 79 1013.3
20260903030428 81 166 0.0 0.0 0.00 0.00 0.00 78 1013.5
20260903025923 81 166 0.0 0.0 0.00 0.00 0.00 78 1013.4
20260903025414 81 166 0.0 0.0 0.00 0.00 0.00 77 1013.5
20260903024909 82 166 0.0 0.0 0.00 0.00 0.00 76 1013.4
20260903024407 82 166 0.0 0.0 0.00 0.00 0.00 75 1013.5
20260903023857 82 166 0.0 0.0 0.00 0.00 0.00 74 1013.5
20260903023353 83 166 0.0 0.0 0.00 0.00 0.00 74 1013.5
20260903022848 83 166 0.0 0.0 0.00 0.00 0.00 72 1013.3
20260903022347 83 166 0.0 0.0 0.00 0.00 0.00 71 1013.3
20260903021846 84 166 0.0 0.0 0.00 0.00 0.00 70 1013.3
20260903021342 84 166 0.0 0.0 0.00 0.00 0.00 69 1013.5
20260903020841 84 166 0.0 0.0 0.00 0.00 0.00 68 1013.1
20260903020336 85 166 0.0 0.0 0.00 0.00 0.00 67 1012.9
20260903015831 85 166 0.0 0.0 0.00 0.00 0.00 66 1012.8
20260903015327 85 166 0.0 0.0 0.00 0.00 0.00 65 1012.9
20260903014822 86 166 0.0 0.0 0.00 0.00 0.00 65 1012.9
20260903014321 86 166 0.0 0.0 0.00 0.00 0.00 64 1012.7
20260903013817 87 166 0.0 0.0 0.00 0.00 0.00 63 1012.8
20260903013316 87 166 0.0 0.0 0.00 0.00 0.00 62 1012.8
20260903012815 87 166 0.0 0.0 0.00 0.00 0.00 61 1012.5
20260903012309 88 166 0.0 0.0 0.00 0.00 0.00 60 1012.6
20260903011809 88 166 0.0 0.0 0.00 0.00 0.00 59 1012.5
20260903011303 89 166 0.0 0.0 0.00 0.00 0.00 58 1012.5
20260903010758 89 166 0.0 0.0 0.00 0.00 0.00 57 1012.5
20260903010254 89 166 0.0 0.0 0.00 0.00 0.00 56 1012.4
20260903005752 90 166 0.0 0.0 0.00 0.00 0.00 55 1012.6
20260903005247 90 166 0.0 0.0 0.00 0.00 0.00 54 1012.3
20260903004743 90 166 1.0 1.0 0.00 0.00 0.00 53 1012.3
20260903004238 91 166 0.0 0.0 0.00 0.00 0.00 53 1012.5
20260903003734 91 166 0.0 0.0 0.00 0.00 0.00 53 1012.3
20260903003229 92 166 0.0 0.0 0.00 0.00 0.00 52 1012.6
20260903002723 92 167 0.0 0.0 0.00 0.00 0.00 51 1012.3
20260903002218 93 166 0.0 0.0 0.00 0.00 0.00 50 1012.4
20260903001713 93 166 0.0 0.0 0.00 0.00 0.00 50 1012.4
20260903001206 95 167 0.0 0.0 0.00 0.00 0.00 47 1012.5
20260903000703 95 167 1.0 3.0 0.00 0.00 0.00 45 1012.4
20260903000204 95 167 0.0 0.0 0.00 0.00 0.00 46 1012.5
20260902235700 96 167 1.0 2.0 0.00 0.00 0.00 44 1012.6
20260902235156 96 167 0.0 1.0 0.00 0.00 0.00 45 1012.5
20260902234650 96 167 1.0 2.0 0.00 0.00 0.00 44 1012.5
20260902234149 96 167 0.0 2.0 0.00 0.00 0.00 44 1012.3
20260902233644 96 167 1.0 3.0 0.00 0.00 0.00 42 1012.4
20260902233144 96 169 2.0 3.0 0.00 0.00 0.00 42 1012.5
20260902232643 97 171 1.0 3.0 0.00 0.00 0.00 42 1012.5
20260902232141 97 172 2.0 5.0 0.00 0.00 0.00 42 1012.7
20260902231636 97 168 3.0 3.0 0.00 0.00 0.00 42 1012.5
20260902231131 97 168 0.0 1.0 0.00 0.00 0.00 45 1012.4
20260902230626 97 168 0.0 0.0 0.00 0.00 0.00 44 1012.6
20260902230125 97 168 0.0 2.0 0.00 0.00 0.00 44 1012.6
20260902225620 96 169 1.0 2.0 0.00 0.00 0.00 43 1012.7
20260902225119 96 166 3.0 3.0 0.00 0.00 0.00 42 1012.6
20260902224618 96 166 1.0 3.0 0.00 0.00 0.00 42 1012.7
20260902224114 97 168 2.0 3.0 0.00 0.00 0.00 43 1012.4
20260902223611 98 168 4.0 6.0 0.00 0.00 0.00 41 1012.4
20260902223109 98 170 2.0 3.0 0.00 0.00 0.00 42 1012.6
20260902222608 98 164 1.0 5.0 0.00 0.00 0.00 40 1012.7
20260902222107 97 165 2.0 3.0 0.00 0.00 0.00 41 1012.6
20260902221602 97 159 4.0 6.0 0.00 0.00 0.00 41 1012.5
20260902221102 97 164 4.0 5.0 0.00 0.00 0.00 41 1012.4
20260902220557 97 170 3.0 7.0 0.00 0.00 0.00 41 1012.5
20260902220052 97 167 2.0 6.0 0.00 0.00 0.00 41 1012.5
20260902215548 97 172 0.0 3.0 0.00 0.00 0.00 42 1012.6
20260902215043 97 168 2.0 3.0 0.00 0.00 0.00 42 1012.6
20260902214537 97 165 1.0 1.0 0.00 0.00 0.00 43 1012.7
20260902214037 97 165 3.0 5.0 0.00 0.00 0.00 42 1012.7
20260902213533 98 171 3.0 6.0 0.00 0.00 0.00 41 1012.8
20260902213032 97 169 2.0 6.0 0.00 0.00 0.00 42 1013.0
20260902212527 98 168 2.0 5.0 0.00 0.00 0.00 42 1013.0
20260902212023 98 164 1.0 3.0 0.00 0.00 0.00 42 1013.0
20260902211520 98 167 4.0 7.0 0.00 0.00 0.00 41 1013.2
20260902211014 98 172 2.0 5.0 0.00 0.00 0.00 42 1012.9
20260902210509 97 180 5.0 7.0 0.00 0.00 0.00 42 1013.3
20260902210008 98 192 1.0 3.0 0.00 0.00 0.00 40 1013.3
20260902205502 98 163 2.0 5.0 0.00 0.00 0.00 42 1013.3
20260902204958 97 181 2.0 5.0 0.00 0.00 0.00 43 1013.5
20260902204457 97 154 1.0 3.0 0.00 0.00 0.00 42 1013.5
20260902203953 97 179 1.0 6.0 0.00 0.00 0.00 42 1013.4
20260902203448 98 166 3.0 6.0 0.00 0.00 0.00 41 1013.7
20260902202947 98 161 7.0 9.0 0.00 0.00 0.00 41 1013.7
20260902202443 97 161 2.0 7.0 0.00 0.00 0.00 41 1013.6
20260902201939 96 151 1.0 3.0 0.00 0.00 0.00 43 1013.5
20260902201429 97 185 4.0 6.0 0.00 0.00 0.00 43 1013.8
20260902200928 97 155 0.0 3.0 0.00 0.00 0.00 42 1013.7
20260902200424 98 273 3.0 6.0 0.00 0.00 0.00 41 1013.8
20260902195919 98 169 3.0 3.0 0.00 0.00 0.00 41 1013.9
20260902195414 97 152 2.0 8.0 0.00 0.00 0.00 41 1013.9
20260902194909 97 148 3.0 7.0 0.00 0.00 0.00 41 1013.9
20260902194408 98 175 3.0 6.0 0.00 0.00 0.00 42 1014.1
20260902193903 98 173 5.0 7.0 0.00 0.00 0.00 43 1014.2
20260902193400 97 171 3.0 5.0 0.00 0.00 0.00 43 1014.0